カタログに戻る

STARLINK-11327

運用中通信VLEO
NORAD 61695·PAYLOAD·🇺🇸 United States

打ち上げ Oct 30, 2024 から Vandenberg Space Force Base

Loading…

次のパス (今後24時間)

TLE

最新Source: CelesTrak SupGP

元期: Sep 15, 2026, 03:41 UTC

1 61695C 24195J   26258.15395833  .00029026  00000+0  23904-3 0  2585
2 61695  53.1574 172.1677 0001225  87.2088 233.2037 15.69700953    14

AllMySatでSTARLINK-11327をリアルタイム追跡

Download on the App Store